BEIDOU-2 G8 (C01)

Last updated on Sat Aug 15 2026 00:03:26 GMT+0000 (Coordinated Universal Time)

1 44231U 19027A 26226.59850626 -.00000262 00000+0 00000+0 0 9991 2 44231 1.8019 74.4356 0009239 280.5701 328.0160 1.00271014 26666
UTC large
Height (km)
Speed (km/s)
/
Latitude / Longitude
Inclination (degrees)
Orbital Period (minutes)
Azimuth
Elevation
Range (km)
Doppler Factor

Next 0 passes for location: London (51.5072 / 0.1276)

No passes found over London.
BEIDOU-2 G8 (C01)